Wheeling, WV

12:02 PM EDT on September 26, 2017 (GMT -0400)
Wheeling-Ohio County

Weather History for KHLG - October, 2012

Change the Weather History Date:

Friday, October 5, 2012

  Actual Average Record
Temperature  
Mean Temperature 67 °F 57 °F  
Max Temperature 75 °F 67 °F 87 °F (2007)
Min Temperature 58 °F 47 °F 34 °F (2004)
Degree Days  
Heating Degree Days 0 9  
Month to date heating degree days 13 40  
Since 1 July heating degree days 138 141  
Cooling Degree Days 2    
Month to date cooling degree days 6  
Year to date cooling degree days 980  
Growing Degree Days 15 (Base 50)    
Moisture  
Dew Point 54 °F    
Average Humidity 68    
Maximum Humidity 86    
Minimum Humidity 49    
Precipitation  
Precipitation 0.00 in 0.08 in 0.76 in (1983)
Month to date precipitation 0.14 0.43  
Sea Level Pressure  
Sea Level Pressure 30.05 in    
Wind  
Wind Speed 8 mph (SW)    
Max Wind Speed 16 mph    
Max Gust Speed 23 mph    
Visibility 10 miles    
Events      
T = Trace of Precipitation, MM = Missing Value Source: NWS Daily Summary

Daily Weather History Graph

Daily Weather History Graph

Search for Another Location

Airport or City:

Trip Planner

Search our weather history database for the weather conditions in past years. The results will help you decide how hot, cold, wet, or windy it might be!

Date:

Astronomy

Oct. 05, 2012 Rise Set
Actual Time 7:23 AM EDT 6:57 PM EDT
Civil Twilight 6:56 AM EDT 7:24 PM EDT
Nautical Twilight 6:24 AM EDT 7:56 PM EDT
Astronomical Twilight 5:53 AM EDT 8:27 PM EDT
Moon 10:19 PM EDT (10/5) 12:30 PM EDT (10/5)
Length of Visible Light 12h 28m
Length of Day
11h 34m
Waning Gibbous, 74% of the Moon is Illuminated
Oct 5
Waning Gibbous
Oct 8
Last Quarter
Oct 15
New
Oct 21
First Quarter
Oct 29
Full

Hourly Weather History & Observations

Time (EDT) Temp. Dew Point Humidity Pressure Visibility Wind Dir Wind Speed Gust Speed Precip Events Conditions
12:53 AM 61.0 °F 53.1 °F 75% 30.14 in 10.0 mi SSW 9.2 mph - N/A   Clear
1:53 AM 61.0 °F 53.1 °F 75% 30.15 in 10.0 mi SW 6.9 mph - N/A   Clear
2:53 AM 61.0 °F 53.1 °F 75% 30.15 in 10.0 mi SW 8.1 mph - N/A   Clear
3:53 AM 60.1 °F 53.1 °F 78% 30.13 in 10.0 mi SSW 6.9 mph - N/A   Clear
4:53 AM 59.0 °F 53.1 °F 81% 30.11 in 10.0 mi SSW 5.8 mph - N/A   Clear
5:53 AM 59.0 °F 53.1 °F 81% 30.13 in 10.0 mi SW 6.9 mph - N/A   Clear
6:53 AM 59.0 °F 53.1 °F 81% 30.14 in 10.0 mi SW 6.9 mph - N/A   Clear
7:53 AM 57.9 °F 53.1 °F 84% 30.14 in 10.0 mi SSW 4.6 mph - N/A   Clear
8:53 AM 60.1 °F 54.0 °F 80% 30.14 in 10.0 mi SW 6.9 mph - N/A   Clear
9:53 AM 63.0 °F 55.0 °F 75% 30.14 in 10.0 mi SW 8.1 mph - N/A   Clear
10:53 AM 66.0 °F 55.9 °F 70% 30.12 in 10.0 mi SW 8.1 mph - N/A   Clear
11:53 AM 70.0 °F 57.0 °F 63% 30.10 in 10.0 mi SSW 10.4 mph - N/A   Clear
1:53 PM 72.0 °F 55.9 °F 57% 30.05 in 10.0 mi WSW 8.1 mph - N/A   Partly Cloudy
2:53 PM 72.0 °F 54.0 °F 53% 30.04 in 10.0 mi SW 15.0 mph 21.9 mph N/A   Mostly Cloudy
3:53 PM 73.0 °F 54.0 °F 51% 30.01 in 10.0 mi West 12.7 mph 18.4 mph N/A   Mostly Cloudy
4:53 PM 72.0 °F 55.0 °F 55% 29.99 in 10.0 mi West 8.1 mph - N/A   Mostly Cloudy
5:53 PM 72.0 °F 55.0 °F 55% 29.98 in 10.0 mi West 6.9 mph - N/A   Clear
6:53 PM 69.1 °F 55.0 °F 61% 29.97 in 10.0 mi SW 4.6 mph - N/A   Scattered Clouds
7:53 PM 66.9 °F 55.9 °F 68% 29.97 in 10.0 mi SSE 5.8 mph - N/A   Mostly Cloudy
8:53 PM 66.9 °F 55.0 °F 66% 29.94 in 10.0 mi South 10.4 mph - N/A   Partly Cloudy
9:53 PM 66.0 °F 55.0 °F 68% 29.92 in 10.0 mi South 10.4 mph - N/A   Mostly Cloudy
10:53 PM 66.0 °F 54.0 °F 65% 29.91 in 10.0 mi South 9.2 mph - N/A   Overcast
11:53 PM 66.9 °F 54.0 °F 63% 29.88 in 10.0 mi South 13.8 mph - N/A   Overcast